Regional Weather Roundup
Issued by NWS Goodland, KS

Home | Current Version | Previous Version | Graphics & Text | Print | Product List | Glossary On
Versions: 1 2 3 4 5 6 7 8 9 10 11 12 13 14 15 16 17 18 19 20 21 22 23 24 25 26 27 28 29 30 31 32 33 34 35 36 37 38 39 40 41 42 43 44 45 46 47 48 49 50
000
ASUS43 KGLD 121708
RWRGLD

GOODLAND FORECAST AREA HOURLY WEATHER ROUNDUP
NATIONAL WEATHER SERVICE GOODLAND KS
1100 AM MDT SAT JUL 12 2014

...OFFICIAL OBSERVATIONS...

CITY           SKY/WX    TMP DP  RH WIND       PRES   REMARKS
GOODLAND KS    SUNNY     83  66  56 N14G20    30.12R
HILL CITY KS   SUNNY     92  61  35 SW12      30.01S
IMPERIAL NEB   CLOUDY    75  66  73 N16       30.14R
MCCOOK NEB     MOSUNNY   82  69  64 N15       30.06R
AKRON CO       MOSUNNY   76  64  66 N18       30.22R
BURLINGTON CO  MOSUNNY   77  65  66 N13       30.17R
LIMON CO       MOSUNNY   75  61  61 N14       30.26R
$$

...UNOFFICIAL OBSERVATIONS...

CITY           SKY/WX    TMP DP  RH WIND       PRES   REMARKS
COLBY KS       SUNNY     86  72  62 N13       30.09R
GOVE KS          N/A     86  32  14 CALM        N/A
LENORA KS        N/A     86  32  14 MISG        N/A
NORTON KS      SUNNY     90  61  37 NW12      30.01S
OBERLIN KS     FAIR      86  66  51 N16G22    30.06R
SHARON SPRINGS   N/A     84  67  55 NE10        N/A
ST FRANCIS KS  CLOUDY    77  64  65 N15       30.13R
TRIBUNE KS     SUNNY     84 N/A N/A NW12G17   30.13R
WAKEENEY KS      N/A     92  57  30 MISG        N/A
KIT CARSON CO    N/A     78  64  62 N14         N/A
WRAY CO        CLOUDY    75  66  73 N14       30.16
YUMA CO          N/A     76  65  68 N14         N/A
$$



USA.gov is the U.S. government's official web portal to all federal, state and local government web resources and services.